Regional Weather Roundup
Issued by NWS

Home | Current Version | Previous Version | Text Only | Print | Product List | Glossary Off
Versions: 1 2 3 4 5 6 7 8 9 10 11 12 13 14 15 16 17 18 19 20 21 22 23 24 25 26 27

000
ASUS45 KCYS 241810
RWRWY

WYOMING REGIONAL WEATHER ROUNDUP
NATIONAL WEATHER SERVICE CHEYENNE WY
1200 PM MDT WED MAY 24 2017

NOTE:  "FAIR" INDICATES FEW OR NO CLOUDS BELOW 12,000 FEET
WITH NO SIGNIFICANT WEATHER AND/OR OBSTRUCTIONS TO VISIBILITY.

WYZ001-241900-
YELLOWSTONE NATIONAL PARK

CITY           SKY/WX    TMP DP  RH WIND       PRES   REMARKS
LK YELLOWSTONE   N/A     60  36  40 W10G26    29.72F
6HR MIN TEMP:  29; 6HR MAX TEMP:  61;

W YELLOWSTONE  NOT AVBL

$$
WYZ002>013-054>058-071-098>099-241900-
NORTHERN WYOMING

CITY           SKY/WX    TMP DP  RH WIND       PRES   REMARKS
JACKSON        NOT AVBL
CODY           FAIR      75  38  26 VRB5      29.50F
GREYBULL       FAIR      78  40  25 SE15G23   29.47F
6HR MIN TEMP:  43; 6HR MAX TEMP:  79;

WORLAND        FAIR      76  40  27 S7        29.50F
6HR MIN TEMP:  41; 6HR MAX TEMP:  77;

SHERIDAN       FAIR      82  45  27 CALM      29.45F
6HR MIN TEMP:  39; 6HR MAX TEMP:  82;

BUFFALO        FAIR      79  44  28 E10       29.51F
6HR MIN TEMP:  51; 6HR MAX TEMP:  79;

GILLETTE       FAIR      73  52  47 S16       29.51F
6HR MIN TEMP:  45; 6HR MAX TEMP:  73;

HULETT         FAIR      72  37  28 SW14      29.53F
NEWCASTLE      FAIR      64  36  34 S17G24    29.59F

$$
WYZ014>020-022>026-101>103-241900-
CENTRAL WYOMING

CITY           SKY/WX    TMP DP  RH WIND       PRES   REMARKS
BIG PINEY      FAIR      70  36  28 W28G37    29.82F
6HR MIN TEMP:  31; 6HR MAX TEMP:  70;

PINEDALE       CLOUDY    64  34  32 W14G24    29.81F
DUBOIS         NOT AVBL
LANDER         FAIR      76  35  22 NW20G26   29.62F
6HR MIN TEMP:  42; 6HR MAX TEMP:  76;

RIVERTON       FAIR      74  38  27 S12       29.62F
6HR MIN TEMP:  44; 6HR MAX TEMP:  74;

CASPER         FAIR      75  41  29 SW20      29.62F
6HR MIN TEMP:  49; 6HR MAX TEMP:  75;

DOUGLAS        FAIR      76  39  26 W17       29.62F
6HR MIN TEMP:  37; 6HR MAX TEMP:  76;


$$
WYZ021-027>030-104>119-241900-
SOUTHERN WYOMING

CITY           SKY/WX    TMP DP  RH WIND       PRES   REMARKS
EVANSTON         N/A    N/A N/A N/A MISG        N/A
KEMMERER         N/A     68  32  26 W25G41    29.87F
FORT BRIDGER   FAIR      72  32  23 W26G41    29.92F
ROCK SPRINGS   FAIR      73  31  21 W30G39    29.82F
6HR MIN TEMP:  50; 6HR MAX TEMP:  73;

RAWLINS        FAIR      72  33  24 W32G41    29.80F
6HR MIN TEMP:  50; 6HR MAX TEMP:  72;

SARATOGA       FAIR      68  34  28 W21G32    29.86F
LARAMIE        FAIR      69  31  24 W25G37    29.81F
6HR MIN TEMP:  40; 6HR MAX TEMP:  69;

CHEYENNE       FAIR      73  32  22 W25G37    29.74F
6HR MIN TEMP:  42; 6HR MAX TEMP:  73;

TORRINGTON     FAIR      70  42  36 VRB3      29.62F
6HR MIN TEMP:  37; 6HR MAX TEMP:  70;


$$




USA.gov is the U.S. government's official web portal to all federal, state and local government web resources and services.